TimePST,TemperatureF,Dew PointF,Humidity,Sea Level PressureIn,VisibilityMPH,Wind Direction,Wind SpeedMPH,Gust SpeedMPH,PrecipitationIn,Events,Conditions,WindDirDegrees,DateUTC
12:53 AM,30.9,25.0,79,30.21,10.0,West,5.8,-,N/A,,Clear,270,2013-03-09 08:53:00
1:53 AM,30.0,24.1,79,30.22,10.0,West,5.8,-,N/A,,Clear,280,2013-03-09 09:53:00
2:53 AM,28.0,23.0,81,30.23,10.0,West,6.9,-,N/A,,Clear,280,2013-03-09 10:53:00
3:53 AM,30.0,24.1,79,30.26,10.0,WSW,5.8,-,N/A,,Clear,250,2013-03-09 11:53:00
4:53 AM,27.0,21.9,81,30.28,10.0,West,6.9,-,N/A,,Clear,280,2013-03-09 12:53:00
5:53 AM,28.0,23.0,81,30.30,10.0,West,9.2,-,N/A,,Clear,260,2013-03-09 13:53:00
6:53 AM,28.0,21.9,78,30.32,10.0,West,8.1,-,N/A,,Clear,270,2013-03-09 14:53:00
7:53 AM,35.1,26.1,70,30.33,10.0,West,8.1,-,N/A,,Clear,260,2013-03-09 15:53:00
8:53 AM,43.0,28.0,56,30.35,10.0,West,5.8,-,N/A,,Clear,260,2013-03-09 16:53:00
9:53 AM,48.0,28.0,46,30.36,10.0,West,4.6,-,N/A,,Clear,260,2013-03-09 17:53:00
10:53 AM,51.1,27.0,39,30.37,10.0,Calm,Calm,-,N/A,,Clear,0,2013-03-09 18:53:00
11:53 AM,55.0,26.1,33,30.36,10.0,Calm,Calm,-,N/A,,Clear,0,2013-03-09 19:53:00
12:53 PM,57.0,32.0,39,30.35,10.0,SSE,6.9,-,N/A,,Clear,160,2013-03-09 20:53:00
1:53 PM,57.9,28.9,33,30.35,10.0,Calm,Calm,-,N/A,,Clear,0,2013-03-09 21:53:00
2:53 PM,60.1,27.0,28,30.35,10.0,Calm,Calm,-,N/A,,Clear,0,2013-03-09 22:53:00
3:53 PM,59.0,28.0,31,30.35,10.0,Variable,3.5,-,N/A,,Clear,0,2013-03-09 23:53:00
4:53 PM,57.9,28.9,33,30.35,10.0,South,6.9,-,N/A,,Clear,170,2013-03-10 00:53:00
5:53 PM,53.1,28.0,38,30.36,10.0,Calm,Calm,-,N/A,,Clear,0,2013-03-10 01:53:00
6:53 PM,42.1,28.9,60,30.39,10.0,Calm,Calm,-,N/A,,Clear,0,2013-03-10 02:53:00
7:53 PM,42.1,28.9,60,30.41,10.0,West,6.9,-,N/A,,Clear,270,2013-03-10 03:53:00
8:53 PM,43.0,28.9,58,30.42,10.0,West,5.8,-,N/A,,Clear,260,2013-03-10 04:53:00
9:53 PM,37.0,27.0,67,30.42,10.0,West,6.9,-,N/A,,Clear,270,2013-03-10 05:53:00
10:53 PM,37.0,27.0,67,30.42,10.0,Calm,Calm,-,N/A,,Clear,0,2013-03-10 06:53:00
11:53 PM,35.1,25.0,67,30.42,10.0,WSW,8.1,-,N/A,,Clear,250,2013-03-10 07:53:00